Location: Borbetomagus
(49.6328°N, 8.3592°E)
Time: 10:14:53
(UTC+00:00)

Okean 1 - Pass Details

Date: 19 May 2025
Orbit: 478 x 498 km, 82.5° (Epoch: 23 June)

Event Time Altitude Azimuth Distance (km) Brightness Sun altitude
Exits shadow 21:43:37 24° 210° (SSW) 1,046 4.4 -17.0°
Maximum altitude 21:45:37 59° 282° (WNW) 571 3.5 -17.1°
Drops below altitude 10° 21:49:16 10° 3° (N) 1,684 6.8 -17.3°
Sets 21:51:24 0° 7° (N) 2,567 7.8 -17.5°
